sat.trackr.live / text

‹ back to catalog

KUIPER-00431

NORAD 68936 · 2026-098T

PAYLOAD ACTIVE UNKNOWN

§ Identity

Operator
Country
US
Launch date
2026-04-30
Launch site
FRGUI
Launch vehicle
Mass (kg)
RCS (m²)

External: N2YO · Heavens-Above · Gunter

§ Orbital elements

Epoch: 2026-09-20T00:15:25.119360Z

Period
97.30 min
Inclination
51.9008°
Eccentricity
0.0000514
Mean motion
14.79932091 rev/d
Perigee alt
629.2 km
Apogee alt
629.9 km
Semi-major
7,007.7 km
B*
2.0840e-4
RAAN
3.8376°
Arg perigee
121.4693°
Mean anomaly
238.6320°
Rev number
2,145

§ Raw data

KUIPER-004311 68936U 26098T   26263.01070740  .00001368  00000+0  20840-3 0  99992 68936  51.9008   3.8376 0000514 121.4693 238.6320 14.79932091 21451

JSON: /api/v1/satellites/68936 · /tle

For live sub-satellite position, see the globe view (requires WebGL).

§ Visibility from observer

Set your observer location to see the next 7 days of passes ≥ 10°. The values pass through the URL so the page stays shareable.

No JS? Fill the form by hand. The geolocation button needs JavaScript.